sat.trackr.live / text

‹ back to catalog

STARLINK-4340

NORAD 53494 · 2022-099AF

PAYLOAD ACTIVE UNKNOWN

§ Identity

Operator
Country
US
Launch date
2022-08-12
Launch site
AFWTR
Launch vehicle
Mass (kg)
RCS (m²)

Purposes: comms

External: N2YO · Heavens-Above · Gunter

§ Orbital elements

Epoch: 2026-09-19T13:50:51.486720Z

Period
93.91 min
Inclination
97.2864°
Eccentricity
0.0001254
Mean motion
15.33433011 rev/d
Perigee alt
464.7 km
Apogee alt
466.4 km
Semi-major
6,843.7 km
B*
1.7723e-5
RAAN
20.1750°
Arg perigee
89.6568°
Mean anomaly
270.4818°
Rev number
22,540

§ Raw data

STARLINK-43401 53494U 22099AF  26262.57698480  .00000497  00000+0  17723-4 0  99952 53494  97.2864  20.1750 0001254  89.6568 270.4818 15.33433011225409

JSON: /api/v1/satellites/53494 · /tle

For live sub-satellite position, see the globe view (requires WebGL).

§ Visibility from observer

Set your observer location to see the next 7 days of passes ≥ 10°. The values pass through the URL so the page stays shareable.

No JS? Fill the form by hand. The geolocation button needs JavaScript.